Location: Kolonia Suska
(50.3503°N, 19.7261°E)
Time: 21:56:04
(UTC+00:00)

Daily predictions for brighter satellites

Satellite Brightness Start Highest point End
(mag) Time Altitude Azimuth Time Altitude Azimuth Time Altitude Azimuth
Cosmos 1607 4.2 15:05:25 10° SSW 15:11:41 65° ESE 15:18:04 10° NE
ATLAS 2AS CENTAUR R/B 3.4 15:07:03 10° NW 15:13:27 34° NNE 15:19:33 10° E
SL-8 R/B 4.3 15:10:18 10° W 15:15:01 60° SSW 15:19:43 10° ESE
Cosmos 1602 4.5 15:14:21 10° N 15:17:39 29° ENE 15:20:56 10° SE
RESURS DK-1 4.3 15:16:10 10° N 15:17:54 12° NNE 15:19:40 10° ENE
Cosmos 1943 3.5 15:12:41 10° NNW 15:18:06 45° NE 15:23:30 10° SE
CZ-4B R/B 4.4 15:16:21 10° ESE 15:20:23 25° ENE 15:24:21 10° N
USA 305 2.6 15:18:49 10° WNW 15:22:37 86° NNE 15:26:29 10° ESE
Cosmos 1606 3.5 15:19:07 10° SSW 15:22:39 50° WNW 15:26:16 10° N
Cosmos 1953 Rocket 3.9 15:23:41 10° NNW 15:28:09 71° W 15:32:31 10° S
SMAP 3.3 15:23:46 10° SE 15:28:13 48° ENE 15:32:43 10° N
SL-16 R/B 3.7 15:22:40 10° N 15:28:30 42° WNW 15:34:18 10° SW
Cosmos 1500 2.9 15:26:28 10° N 15:30:00 63° ENE 15:33:30 10° SSE
Cosmos 2297 Rocket 3.3 15:24:54 10° WSW 15:30:14 41° NW 15:35:36 10° NNE
Aureole 3 Rocket 3.6 15:26:17 10° NNW 15:30:55 59° W 15:34:24 10° S
Cosmos 2344 4.4 15:24:46 10° S 15:31:01 28° ESE 15:37:03 10° ENE
Cosmos 407 Rocket 4.0 15:26:33 10° NNW 15:31:19 36° NE 15:36:01 10° ESE
Helios 1B rocket 2.3 15:27:23 10° SSE 15:31:19 88° ENE 15:35:18 10° NNW
CZ-4B R/B 4.0 15:30:53 10° SE 15:34:15 39° ENE 15:37:41 10° N
Cosmos 2219 3.3 15:31:04 10° SSW 15:36:42 84° WNW 15:42:23 10° NNE
H-2A R/B 4.4 15:33:58 10° SSW 15:38:09 26° W 15:42:18 10° NW
Cosmos 2251 Rocket 3.9 15:33:45 10° NNW 15:38:52 43° ENE 15:43:58 10° SE
Cosmos 405 Rocket 2.9 15:37:26 10° SSW 15:41:15 75° WNW 15:45:07 10° N
ISS -1.8 15:41:37 10° W 15:44:37 31° SSW 15:47:37 10° SSE
Lacrosse 5 3.5 15:46:46 10° SSE 15:50:01 17° ESE 15:52:30 13° E
Cosmos 1833 Rocket 4.4 15:47:12 10° N 15:50:15 14° NNE 15:52:05 13° NE
Cosmos 724 4.4 15:45:35 10° SW 15:51:47 88° SE 15:57:43 11° NE
Cosmos 2151 3.7 15:47:37 10° NNW 15:51:49 58° W 15:56:00 10° S
Cosmos 2082 3.7 15:46:13 10° SSW 15:51:50 84° ESE 15:57:30 10° NNE
COSMO-SKYMED 1 3.9 15:52:17 15° ENE 15:54:16 20° E 15:57:27 10° SE
Cosmos-2242 3.4 15:50:45 10° SSE 15:54:50 41° E 15:58:54 10° NNE
USA 234 4.0 15:50:14 13° ENE 15:55:24 36° SE 16:01:19 10° SSW
Lacrosse 4 Rocket 1.4 15:51:29 10° NNW 15:55:51 77° NE 16:00:06 10° SE
Cosmos 2058 Rocket 3.3 15:52:48 10° SSW 15:57:13 72° WNW 16:01:38 10° N
Meteor 1-25 Rocket 4.3 15:53:28 10° N 15:59:01 52° ENE 16:04:29 10° SSE
Cosmos 2279 Rocket 4.5 15:53:23 10° NNW 15:59:34 65° W 16:05:42 10° S
Cosmos 1023 Rocket 4.4 15:55:23 10° NNW 16:00:35 78° ENE 16:05:41 10° SSE
Cosmos 1190 Rocket 4.5 15:58:22 10° NNW 16:03:22 39° NE 16:08:18 10° SE
Cosmos 1818 4.3 16:00:09 10° S 16:05:00 34° ESE 16:08:07 19° ENE
APEX 3.4 16:02:41 10° S 16:05:16 27° ESE 16:05:47 26° E
Cosmos 2221 4.3 16:03:03 10° ESE 16:04:18 14° ESE 16:04:18 14° ESE
Cosmos 1812 2.7 16:06:32 10° S 16:10:07 52° E 16:13:14 13° NNE
AQUARIUS 4.2 16:08:51 10° SSE 16:13:19 87° WSW 16:17:49 10° NNW
YAOGAN 11 4.4 16:09:17 10° N 16:13:49 72° WNW 16:18:21 10° SSW
CZ-2C R/B 4.1 16:12:39 10° S 16:16:01 39° W 16:19:27 10° NNW
USA 276 2.1 16:14:28 10° SW 16:16:48 43° SSE 16:17:13 38° SE
Cosmos 2263 Rocket 2.3 16:12:31 10° SW 16:18:05 74° WNW 16:23:22 12° NNE
Cosmos 1844 Rocket 3.5 16:13:45 10° SSE 16:18:26 29° ESE 16:20:21 23° ENE
Cosmos 1092 Rocket 4.2 16:15:27 10° SSE 16:21:13 45° E 16:27:01 10° NNE
Nadezhda 4 Rocket 3.9 16:15:08 10° S 16:21:16 79° E 16:27:25 10° NNE
USA 307 4.3 16:22:04 10° WNW 16:25:33 32° SW 16:28:57 10° SSE
Cosmos 1766 Rocket 4.1 16:21:55 10° N 16:25:53 33° ENE 16:29:48 10° SE
Cosmos 2227 4.2 16:20:52 10° SSW 16:26:33 62° ESE 16:30:34 20° NE
Cosmos 2227 Rocket 3.7 16:21:44 10° WSW 16:26:42 30° NW 16:31:40 10° NNE
Cosmos 2082 Rocket 4.1 16:25:11 10° N 16:27:11 12° NNE 16:27:31 12° NNE
Meteor 1-20 Rocket 4.2 16:21:38 10° NNW 16:27:14 85° W 16:32:54 10° S
Cosmos 1140 Rocket 3.8 16:22:59 10° NNW 16:28:09 69° WSW 16:33:15 10° SSE
YAOGAN 1 3.5 16:29:58 28° NE 16:29:58 28° NE 16:32:56 10° N
Meteor 1-5 Rocket 4.4 16:24:30 10° N 16:30:00 48° ENE 16:35:37 10° SE
ADEOS 3.7 16:25:44 10° SE 16:30:45 50° ENE 16:35:47 10° N
Cosmos 1933 3.6 16:27:47 10° SSE 16:31:33 41° E 16:32:19 37° ENE
Cosmos 1603 3.9 16:32:40 10° NNW 16:38:22 76° WSW 16:44:00 10° SSE
CBERS 1 LM4 rocket 4.2 16:36:13 10° SSE 16:41:01 85° ENE 16:45:46 10° NNW
Cosmos 1428 Rocket 4.4 16:35:22 10° S 16:41:38 75° E 16:47:56 10° NNE
SKYMED 2 3.6 16:40:54 32° NE 16:42:40 55° E 16:46:55 10° S
Meteor 1-31 Rocket 4.4 16:39:33 10° SSW 16:42:58 35° W 16:46:25 10° NNW
CZ-4B R/B 3.7 16:44:59 34° NNE 16:44:59 34° NNE 16:47:53 10° N
SL-08 R/B 3.5 16:46:51 42° E 16:47:23 44° E 16:51:49 10° S
Cosmos 192 4.5 16:43:53 10° S 16:48:36 50° ESE 16:49:36 43° ENE
Meteor 2-17 Rocket 4.3 16:44:15 10° S 16:50:20 71° E 16:56:27 10° NNE
ATLAS CENTAUR R/B 3.9 16:48:05 10° WNW 16:52:25 43° SW 17:00:25 10° SSE
RESURS DK-1 2.5 16:52:35 10° NNW 16:56:12 52° NNE 16:56:12 52° NNE
Cosmos 676 Rocket 3.9 16:52:06 10° NNW 16:57:24 62° ENE 16:59:42 33° SE
Cosmos 1627 Rocket 4.4 16:51:45 10° S 16:58:02 79° E 17:04:26 10° NNE
CZ-4B R/B 4.1 16:53:45 10° S 16:58:44 57° WSW 17:03:36 10° NNW
EO 1 Delta rocket 4.3 16:53:23 10° SSE 16:59:51 65° ENE 17:05:03 10° N
Helios 1A 3.2 16:58:42 22° N 17:01:18 66° WNW 17:05:24 10° SSW
Cosmos 1782 2.7 16:58:06 10° SSW 17:02:01 80° W 17:03:03 48° N
Cosmos 1812 Rocket 4.2 16:58:14 10° SSW 17:02:29 54° WNW 17:06:22 12° N
ATLAS 2AS CENTAUR R/B 2.5 16:58:18 10° NW 17:05:19 83° NE 17:09:09 28° SE
NOAA 6 4.4 17:01:28 10° S 17:06:33 63° WSW 17:11:39 10° NNW
Radarsat Rocket 4.4 17:07:16 10° S 17:13:01 62° WSW 17:19:08 10° NNW
CZ-4B DEB 4.1 17:11:06 22° SSE 17:14:46 68° ENE 17:20:18 10° NNW
ADEOS Rocket 4.2 17:22:48 23° NNE 17:22:48 23° NNE 17:25:19 10° N
SME Rocket 4.4 17:21:36 10° SSE 17:27:24 88° WSW 17:36:35 10° NNW
Cosmos 1954 Rocket 4.2 17:22:53 10° NNW 17:28:08 69° WSW 17:31:28 22° S
Cosmos 2056 Rocket 3.4 17:23:12 10° SSW 17:28:36 81° ESE 17:28:45 79° E
COSMOS 2455 3.9 17:23:45 10° S 17:27:03 29° SSE 17:27:03 29° SSE
Timation 2 Rocket 3.7 17:23:43 10° SSW 17:29:41 82° ESE 17:30:41 64° NE
Cosmos 1844 3.6 17:24:07 10° SSW 17:29:53 81° ESE 17:30:24 73° ENE
COSMO-SKYMED 1 3.3 17:29:31 39° NNW 17:30:43 52° WNW 17:34:57 10° SW
Lacrosse 5 2.0 17:27:15 10° SW 17:31:43 65° S 17:31:43 65° S
Lacrosse 4 Rocket 4.5 17:31:09 10° WNW 17:33:40 15° WSW 17:36:09 10° SW
Cosmos 1833 Rocket 3.7 17:30:17 10° NNW 17:33:48 33° N 17:33:48 33° N
Meteor 1-14 Rocket 4.3 17:31:31 10° N 17:36:08 62° N 17:36:08 62° N
S3M 4.4 17:31:03 10° N 17:35:25 45° NNE 17:35:25 45° NNE
USA 234 3.1 17:37:35 61° ENE 17:38:55 89° NW 17:45:28 10° WSW
Cosmos 1553 Rocket 4.1 17:32:50 10° NNW 17:39:10 77° W 17:45:22 10° S
PAYLOAD B 4.3 17:42:07 65° N 17:42:07 65° N 17:46:54 10° NNW
Cosmos 2221 3.7 17:38:22 10° SSW 17:41:02 36° SW 17:41:02 36° SW
Cosmos 2344 3.5 17:37:12 10° SW 17:44:36 72° NW 17:47:05 45° NNE
Cosmos 1818 4.0 17:43:02 10° WSW 17:48:22 55° NW 17:48:46 54° NNW
Cosmos 1371 Rocket 4.3 17:47:43 10° SW 17:52:33 64° W 17:52:33 64° W
CZ-4B R/B 4.5 18:01:42 32° NNW 18:01:42 32° NNW 18:04:34 10° NNW
Cosmos 1844 Rocket 3.1 17:56:33 10° SW 18:02:01 56° NW 18:02:03 56° NW
Cosmos 2263 Rocket 4.2 17:58:59 10° W 18:03:00 20° NW 18:05:03 16° N
Cosmos 2082 Rocket 4.3 18:08:05 10° NNW 18:09:22 16° N 18:09:22 16° N
ATLAS 2AS CENTAUR R/B 4.3 18:50:02 10° WNW 18:55:29 26° WSW 18:56:38 25° SW
